Year,Month,Day,Hour,Minute,Value (Times are PST for temperature in C)
2004,08,13,00,00,17.40
2004,08,13,00,01,17.40
2004,08,13,00,02,17.40
2004,08,13,00,03,17.40
2004,08,13,00,04,17.30
2004,08,13,00,05,17.30
2004,08,13,00,06,17.30
2004,08,13,00,07,17.30
2004,08,13,00,08,17.30
2004,08,13,00,09,17.30
2004,08,13,00,10,17.20
2004,08,13,00,11,17.20
2004,08,13,00,12,17.20
2004,08,13,00,13,17.20
2004,08,13,00,14,17.20
2004,08,13,00,15,17.20
2004,08,13,00,16,17.10
2004,08,13,00,17,17.10
2004,08,13,00,18,17.10
2004,08,13,00,19,17.10
2004,08,13,00,20,17.10
2004,08,13,00,21,17.10
2004,08,13,00,22,17.10
2004,08,13,00,23,17.20
2004,08,13,00,24,17.20
2004,08,13,00,25,17.30
2004,08,13,00,26,17.30
2004,08,13,00,27,17.30
2004,08,13,00,28,17.30
2004,08,13,00,29,17.30
2004,08,13,00,30,17.30
2004,08,13,00,31,17.30
2004,08,13,00,32,17.30
2004,08,13,00,33,17.20
2004,08,13,00,34,17.10
2004,08,13,00,35,17.10
2004,08,13,00,36,17.10
2004,08,13,00,37,17.10
2004,08,13,00,38,17.10
2004,08,13,00,39,17.10
2004,08,13,00,40,17.10
2004,08,13,00,41,17.10
2004,08,13,00,42,17.10
2004,08,13,00,43,17.10
2004,08,13,00,44,17.20
2004,08,13,00,45,17.20
2004,08,13,00,46,17.20
2004,08,13,00,47,17.20
2004,08,13,00,48,17.10
2004,08,13,00,49,17.10
2004,08,13,00,50,17.10
2004,08,13,00,51,17.20
2004,08,13,00,52,17.30
2004,08,13,00,53,17.30
2004,08,13,00,54,17.20
2004,08,13,00,55,17.20
2004,08,13,00,56,17.20
2004,08,13,00,57,17.10
2004,08,13,00,58,17.00
2004,08,13,00,59,17.00
2004,08,13,01,00,16.90
2004,08,13,01,01,16.90
2004,08,13,01,02,16.90
2004,08,13,01,03,17.00
2004,08,13,01,04,17.10
2004,08,13,01,05,17.10
2004,08,13,01,06,17.20
2004,08,13,01,07,17.30
2004,08,13,01,08,17.30
2004,08,13,01,09,17.30
2004,08,13,01,10,17.30
2004,08,13,01,11,17.30
2004,08,13,01,12,17.30
2004,08,13,01,13,17.30
2004,08,13,01,14,17.20
2004,08,13,01,15,17.10
2004,08,13,01,16,17.10
2004,08,13,01,17,17.10
2004,08,13,01,18,17.10
2004,08,13,01,19,17.00
2004,08,13,01,20,17.10
2004,08,13,01,21,17.20
2004,08,13,01,22,17.30
2004,08,13,01,23,17.20
2004,08,13,01,24,17.10
2004,08,13,01,25,17.00
2004,08,13,01,26,16.90
2004,08,13,01,27,16.90
2004,08,13,01,28,16.80
2004,08,13,01,29,16.80
2004,08,13,01,30,16.90
2004,08,13,01,31,16.90
2004,08,13,01,32,16.90
2004,08,13,01,33,16.90
2004,08,13,01,34,16.90
2004,08,13,01,35,16.90
2004,08,13,01,36,16.90
2004,08,13,01,37,16.90
2004,08,13,01,38,16.90
2004,08,13,01,39,16.90
2004,08,13,01,40,16.90
2004,08,13,01,41,16.90
2004,08,13,01,42,16.90
2004,08,13,01,43,17.00
2004,08,13,01,44,17.00
2004,08,13,01,45,17.00
2004,08,13,01,46,17.00
2004,08,13,01,47,16.90
2004,08,13,01,48,16.90
2004,08,13,01,49,16.90
2004,08,13,01,50,16.90
2004,08,13,01,51,16.90
2004,08,13,01,52,16.90
2004,08,13,01,53,16.90
2004,08,13,01,54,16.90
2004,08,13,01,55,16.90
2004,08,13,01,56,16.90
2004,08,13,01,57,16.90
2004,08,13,01,58,16.90
2004,08,13,01,59,16.80
2004,08,13,02,00,16.70
2004,08,13,02,01,16.60
2004,08,13,02,02,16.50
2004,08,13,02,03,16.40
2004,08,13,02,04,16.30
2004,08,13,02,05,16.20
2004,08,13,02,06,16.10
2004,08,13,02,07,16.10
2004,08,13,02,08,16.10
2004,08,13,02,09,16.10
2004,08,13,02,10,16.10
2004,08,13,02,11,16.10
2004,08,13,02,12,16.00
2004,08,13,02,13,15.90
2004,08,13,02,14,15.80
2004,08,13,02,15,15.80
2004,08,13,02,16,15.80
2004,08,13,02,17,15.80
2004,08,13,02,18,15.70
2004,08,13,02,19,15.60
2004,08,13,02,20,15.60
2004,08,13,02,21,15.50
2004,08,13,02,22,15.40
2004,08,13,02,23,15.30
2004,08,13,02,24,15.30
2004,08,13,02,25,15.30
2004,08,13,02,26,15.20
2004,08,13,02,27,15.20
2004,08,13,02,28,15.10
2004,08,13,02,29,15.10
2004,08,13,02,30,15.00
2004,08,13,02,31,15.00
2004,08,13,02,32,14.90
2004,08,13,02,33,14.90
2004,08,13,02,34,14.90
2004,08,13,02,35,14.90
2004,08,13,02,36,14.90
2004,08,13,02,37,14.90
2004,08,13,02,38,14.90
2004,08,13,02,39,15.00
2004,08,13,02,40,15.00
2004,08,13,02,41,15.10
2004,08,13,02,42,15.10
2004,08,13,02,43,15.10
2004,08,13,02,44,15.10
2004,08,13,02,45,15.10
2004,08,13,02,46,15.10
2004,08,13,02,47,15.00
2004,08,13,02,48,15.00
2004,08,13,02,49,14.90
2004,08,13,02,50,14.80
2004,08,13,02,51,14.80
2004,08,13,02,52,14.80
2004,08,13,02,53,14.70
2004,08,13,02,54,14.70
2004,08,13,02,55,14.60
2004,08,13,02,56,14.60
2004,08,13,02,57,14.60
2004,08,13,02,58,14.60
2004,08,13,02,59,14.60
2004,08,13,03,00,14.50
2004,08,13,03,01,14.50
2004,08,13,03,02,14.50
2004,08,13,03,03,14.50
2004,08,13,03,04,14.50
2004,08,13,03,05,14.50
2004,08,13,03,06,14.50
2004,08,13,03,07,14.40
2004,08,13,03,08,14.40
2004,08,13,03,09,14.40
2004,08,13,03,10,14.30
2004,08,13,03,11,14.30
2004,08,13,03,12,14.30
2004,08,13,03,13,14.30
2004,08,13,03,14,14.30
2004,08,13,03,15,14.20
2004,08,13,03,16,14.20
2004,08,13,03,17,14.20
2004,08,13,03,18,14.20
2004,08,13,03,19,14.20
2004,08,13,03,20,14.20
2004,08,13,03,21,14.10
2004,08,13,03,22,14.10
2004,08,13,03,23,14.10
2004,08,13,03,24,14.10
2004,08,13,03,25,14.10
2004,08,13,03,26,14.10
2004,08,13,03,27,14.10
2004,08,13,03,28,14.10
2004,08,13,03,29,14.10
2004,08,13,03,30,14.10
2004,08,13,03,31,14.10
2004,08,13,03,32,14.10
2004,08,13,03,33,14.10
2004,08,13,03,34,14.10
2004,08,13,03,35,14.10
2004,08,13,03,36,14.20
2004,08,13,03,37,14.20
2004,08,13,03,38,14.20
2004,08,13,03,39,14.20
2004,08,13,03,40,14.20
2004,08,13,03,41,14.20
2004,08,13,03,42,14.20
2004,08,13,03,43,14.20
2004,08,13,03,44,14.20
2004,08,13,03,45,14.20
2004,08,13,03,46,14.20
2004,08,13,03,47,14.20
2004,08,13,03,48,14.30
2004,08,13,03,49,14.30
2004,08,13,03,50,14.40
2004,08,13,03,51,14.40
2004,08,13,03,52,14.40
2004,08,13,03,53,14.40
2004,08,13,03,54,14.40
2004,08,13,03,55,14.40
2004,08,13,03,56,14.40
2004,08,13,03,57,14.40
2004,08,13,03,58,14.30
2004,08,13,03,59,14.30
2004,08,13,04,00,14.30
2004,08,13,04,01,14.30
2004,08,13,04,02,14.30
2004,08,13,04,03,14.30
2004,08,13,04,04,14.30
2004,08,13,04,05,14.30
2004,08,13,04,06,14.30
2004,08,13,04,07,14.30
2004,08,13,04,08,14.20
2004,08,13,04,09,14.20
2004,08,13,04,10,14.20
2004,08,13,04,11,14.20
2004,08,13,04,12,14.20
2004,08,13,04,13,14.20
2004,08,13,04,14,14.20
2004,08,13,04,15,14.20
2004,08,13,04,16,14.20
2004,08,13,04,17,14.10
2004,08,13,04,18,14.10
2004,08,13,04,19,14.10
2004,08,13,04,20,14.10
2004,08,13,04,21,14.10
2004,08,13,04,22,14.10
2004,08,13,04,23,14.10
2004,08,13,04,24,14.00
2004,08,13,04,25,14.00
2004,08,13,04,26,14.00
2004,08,13,04,27,14.00
2004,08,13,04,28,14.00
2004,08,13,04,29,14.00
2004,08,13,04,30,14.00
2004,08,13,04,31,13.90
2004,08,13,04,32,13.90
2004,08,13,04,33,13.90
2004,08,13,04,34,13.90
2004,08,13,04,35,13.90
2004,08,13,04,36,13.90
2004,08,13,04,37,13.80
2004,08,13,04,38,13.80
2004,08,13,04,39,13.80
2004,08,13,04,40,13.80
2004,08,13,04,41,13.80
2004,08,13,04,42,13.80
2004,08,13,04,43,13.80
2004,08,13,04,44,13.80
2004,08,13,04,45,13.80
2004,08,13,04,46,13.80
2004,08,13,04,47,13.80
2004,08,13,04,48,13.80
2004,08,13,04,49,13.80
2004,08,13,04,50,13.80
2004,08,13,04,51,13.80
2004,08,13,04,52,13.80
2004,08,13,04,53,13.80
2004,08,13,04,54,13.70
2004,08,13,04,55,13.70
2004,08,13,04,56,13.70
2004,08,13,04,57,13.70
2004,08,13,04,58,13.70
2004,08,13,04,59,13.70
2004,08,13,05,00,13.70
2004,08,13,05,01,13.70
2004,08,13,05,02,13.70
2004,08,13,05,03,13.70
2004,08,13,05,04,13.70
2004,08,13,05,05,13.70
2004,08,13,05,06,13.70
2004,08,13,05,07,13.70
2004,08,13,05,08,13.70
2004,08,13,05,09,13.70
2004,08,13,05,10,13.70
2004,08,13,05,11,13.70
2004,08,13,05,12,13.70
2004,08,13,05,13,13.70
2004,08,13,05,14,13.70
2004,08,13,05,15,13.80
2004,08,13,05,16,13.80
2004,08,13,05,17,13.80
2004,08,13,05,18,13.80
2004,08,13,05,19,13.70
2004,08,13,05,20,13.70
2004,08,13,05,21,13.70
2004,08,13,05,22,13.70
2004,08,13,05,23,13.70
2004,08,13,05,24,13.70
2004,08,13,05,25,13.70
2004,08,13,05,26,13.70
2004,08,13,05,27,13.70
2004,08,13,05,28,13.70
2004,08,13,05,29,13.70
2004,08,13,05,30,13.70
2004,08,13,05,31,13.80
2004,08,13,05,32,13.90
2004,08,13,05,33,13.90
2004,08,13,05,34,14.00
2004,08,13,05,35,14.00
2004,08,13,05,36,14.00
2004,08,13,05,37,13.90
2004,08,13,05,38,13.90
2004,08,13,05,39,13.90
2004,08,13,05,40,14.00
2004,08,13,05,41,14.00
2004,08,13,05,42,14.00
2004,08,13,05,43,14.00
2004,08,13,05,44,14.00
2004,08,13,05,45,13.90
2004,08,13,05,46,13.90
2004,08,13,05,47,13.80
2004,08,13,05,48,13.80
2004,08,13,05,49,13.70
2004,08,13,05,50,13.70
2004,08,13,05,51,13.70
2004,08,13,05,52,13.70
2004,08,13,05,53,13.70
2004,08,13,05,54,13.70
2004,08,13,05,55,13.70
2004,08,13,05,56,13.70
2004,08,13,05,57,13.70
2004,08,13,05,58,13.70
2004,08,13,05,59,13.70
2004,08,13,06,00,13.70
2004,08,13,06,01,13.70
2004,08,13,06,02,13.60
2004,08,13,06,03,13.60
2004,08,13,06,04,13.60
2004,08,13,06,05,13.60
2004,08,13,06,06,13.50
2004,08,13,06,07,13.50
2004,08,13,06,08,13.40
2004,08,13,06,09,13.40
2004,08,13,06,10,13.40
2004,08,13,06,11,13.40
2004,08,13,06,12,13.40
2004,08,13,06,13,13.40
2004,08,13,06,14,13.30
2004,08,13,06,15,13.30
2004,08,13,06,16,13.30
2004,08,13,06,17,13.30
2004,08,13,06,18,13.30
2004,08,13,06,19,13.30
2004,08,13,06,20,13.30
2004,08,13,06,21,13.30
2004,08,13,06,22,13.30
2004,08,13,06,23,13.30
2004,08,13,06,24,13.30
2004,08,13,06,25,13.30
2004,08,13,06,26,13.30
2004,08,13,06,27,13.30
2004,08,13,06,28,13.30
2004,08,13,06,29,13.30
2004,08,13,06,30,13.30
2004,08,13,06,31,13.30
2004,08,13,06,32,13.30
2004,08,13,06,33,13.30
2004,08,13,06,34,13.30
2004,08,13,06,35,13.30
2004,08,13,06,36,13.30
2004,08,13,06,37,13.30
2004,08,13,06,38,13.40
2004,08,13,06,39,13.40
2004,08,13,06,40,13.40
2004,08,13,06,41,13.50
2004,08,13,06,42,13.50
2004,08,13,06,43,13.60
2004,08,13,06,44,13.60
2004,08,13,06,45,13.70
2004,08,13,06,46,13.70
2004,08,13,06,47,13.70
2004,08,13,06,48,13.70
2004,08,13,06,49,13.80
2004,08,13,06,50,13.80
2004,08,13,06,51,13.90
2004,08,13,06,52,13.90
2004,08,13,06,53,14.00
2004,08,13,06,54,14.10
2004,08,13,06,55,14.10
2004,08,13,06,56,14.20
2004,08,13,06,57,14.20
2004,08,13,06,58,14.20
2004,08,13,06,59,14.20
2004,08,13,07,00,14.20
2004,08,13,07,01,14.30
2004,08,13,07,02,14.40
2004,08,13,07,03,14.40
2004,08,13,07,04,14.50
2004,08,13,07,05,14.60
2004,08,13,07,06,14.60
2004,08,13,07,07,14.80
2004,08,13,07,08,14.80
2004,08,13,07,09,14.90
2004,08,13,07,10,15.00
2004,08,13,07,11,15.10
2004,08,13,07,12,15.20
2004,08,13,07,13,15.20
2004,08,13,07,14,15.20
2004,08,13,07,15,15.20
2004,08,13,07,16,15.20
2004,08,13,07,17,15.30
2004,08,13,07,18,15.30
2004,08,13,07,19,15.50
2004,08,13,07,20,15.60
2004,08,13,07,21,15.60
2004,08,13,07,22,15.80
2004,08,13,07,23,15.80
2004,08,13,07,24,15.80
2004,08,13,07,25,15.90
2004,08,13,07,26,15.90
2004,08,13,07,27,16.00
2004,08,13,07,28,16.10
2004,08,13,07,29,16.10
2004,08,13,07,30,16.10
2004,08,13,07,31,16.10
2004,08,13,07,32,16.20
2004,08,13,07,33,16.30
2004,08,13,07,34,16.40
2004,08,13,07,35,16.40
2004,08,13,07,36,16.40
2004,08,13,07,37,16.50
2004,08,13,07,38,16.60
2004,08,13,07,39,16.60
2004,08,13,07,40,16.60
2004,08,13,07,41,16.70
2004,08,13,07,42,16.90
2004,08,13,07,43,17.00
2004,08,13,07,44,17.20
2004,08,13,07,45,17.40
2004,08,13,07,46,17.40
2004,08,13,07,47,17.40
2004,08,13,07,48,17.50
2004,08,13,07,49,17.50
2004,08,13,07,50,17.60
2004,08,13,07,51,17.70
2004,08,13,07,52,17.90
2004,08,13,07,53,18.00
2004,08,13,07,54,18.20
2004,08,13,07,55,18.20
2004,08,13,07,56,18.20
2004,08,13,07,57,18.20
2004,08,13,07,58,18.20
2004,08,13,07,59,18.20
2004,08,13,08,00,18.20
2004,08,13,08,01,18.20
2004,08,13,08,02,18.10
2004,08,13,08,03,18.00
2004,08,13,08,04,17.90
2004,08,13,08,05,17.80
2004,08,13,08,06,17.80
2004,08,13,08,07,17.80
2004,08,13,08,08,17.80
2004,08,13,08,09,17.80
2004,08,13,08,10,17.80
2004,08,13,08,11,17.80
2004,08,13,08,12,17.70
2004,08,13,08,13,17.60
2004,08,13,08,14,17.50
2004,08,13,08,15,17.50
2004,08,13,08,16,17.50
2004,08,13,08,17,17.50
2004,08,13,08,18,17.50
2004,08,13,08,19,17.50
2004,08,13,08,20,17.40
2004,08,13,08,21,17.40
2004,08,13,08,22,17.50
2004,08,13,08,23,17.60
2004,08,13,08,24,17.80
2004,08,13,08,25,17.90
2004,08,13,08,26,17.90
2004,08,13,08,27,18.00
2004,08,13,08,28,18.20
2004,08,13,08,29,18.40
2004,08,13,08,30,18.50
2004,08,13,08,31,18.50
2004,08,13,08,32,18.40
2004,08,13,08,33,18.50
2004,08,13,08,34,18.50
2004,08,13,08,35,18.70
2004,08,13,08,36,18.70
2004,08,13,08,37,18.80
2004,08,13,08,38,18.90
2004,08,13,08,39,18.80
2004,08,13,08,40,18.90
2004,08,13,08,41,18.90
2004,08,13,08,42,18.90
2004,08,13,08,43,18.90
2004,08,13,08,44,18.90
2004,08,13,08,45,18.90
2004,08,13,08,46,18.80
2004,08,13,08,47,18.70
2004,08,13,08,48,18.70
2004,08,13,08,49,18.90
2004,08,13,08,50,19.00
2004,08,13,08,51,19.10
2004,08,13,08,52,19.30
2004,08,13,08,53,19.50
2004,08,13,08,54,19.60
2004,08,13,08,55,19.70
2004,08,13,08,56,19.80
2004,08,13,08,57,19.90
2004,08,13,08,58,19.90
2004,08,13,08,59,20.00
2004,08,13,09,00,20.10
2004,08,13,09,01,20.10
2004,08,13,09,02,20.20
2004,08,13,09,03,20.30
2004,08,13,09,04,20.40
2004,08,13,09,05,20.40
2004,08,13,09,06,20.50
2004,08,13,09,07,20.50
2004,08,13,09,08,20.70
2004,08,13,09,09,20.80
2004,08,13,09,10,21.00
2004,08,13,09,11,21.00
2004,08,13,09,12,21.10
2004,08,13,09,13,21.10
2004,08,13,09,14,21.00
2004,08,13,09,15,20.80
2004,08,13,09,16,20.70
2004,08,13,09,17,20.70
2004,08,13,09,18,20.90
2004,08,13,09,19,21.00
2004,08,13,09,20,21.00
2004,08,13,09,21,21.00
2004,08,13,09,22,20.80
2004,08,13,09,23,20.80
2004,08,13,09,24,20.70
2004,08,13,09,25,20.60
2004,08,13,09,26,20.50
2004,08,13,09,27,20.30
2004,08,13,09,28,20.10
2004,08,13,09,29,19.90
2004,08,13,09,30,19.80
2004,08,13,09,31,19.80
2004,08,13,09,32,19.80
2004,08,13,09,33,19.80
2004,08,13,09,34,19.60
2004,08,13,09,35,19.60
2004,08,13,09,36,19.50
2004,08,13,09,37,19.40
2004,08,13,09,38,19.30
2004,08,13,09,39,19.10
2004,08,13,09,40,19.10
2004,08,13,09,41,19.10
2004,08,13,09,42,19.10
2004,08,13,09,43,19.10
2004,08,13,09,44,19.10
2004,08,13,09,45,19.00
2004,08,13,09,46,18.90
2004,08,13,09,47,19.00
2004,08,13,09,48,19.00
2004,08,13,09,49,19.00
2004,08,13,09,50,19.00
2004,08,13,09,51,19.00
2004,08,13,09,52,19.00
2004,08,13,09,53,19.00
2004,08,13,09,54,19.20
2004,08,13,09,55,19.20
2004,08,13,09,56,19.10
2004,08,13,09,57,19.10
2004,08,13,09,58,19.10
2004,08,13,09,59,19.20
2004,08,13,10,00,19.10
2004,08,13,10,01,19.10
2004,08,13,10,02,19.10
2004,08,13,10,03,19.10
2004,08,13,10,04,19.10
2004,08,13,10,05,19.20
2004,08,13,10,06,19.20
2004,08,13,10,07,19.10
2004,08,13,10,08,19.20
2004,08,13,10,09,19.30
2004,08,13,10,10,19.40
2004,08,13,10,11,19.50
2004,08,13,10,12,19.60
2004,08,13,10,13,19.60
2004,08,13,10,14,19.80
2004,08,13,10,15,20.00
2004,08,13,10,16,20.30
2004,08,13,10,17,20.50
2004,08,13,10,18,20.50
2004,08,13,10,19,20.60
2004,08,13,10,20,20.70
2004,08,13,10,21,20.90
2004,08,13,10,22,20.90
2004,08,13,10,23,20.80
2004,08,13,10,24,20.80
2004,08,13,10,25,20.80
2004,08,13,10,26,20.90
2004,08,13,10,27,20.90
2004,08,13,10,28,20.80
2004,08,13,10,29,20.80
2004,08,13,10,30,20.80
2004,08,13,10,31,20.90
2004,08,13,10,32,20.80
2004,08,13,10,33,20.60
2004,08,13,10,34,20.30
2004,08,13,10,35,20.20
2004,08,13,10,36,20.30
2004,08,13,10,37,20.60
2004,08,13,10,38,20.80
2004,08,13,10,39,21.00
2004,08,13,10,40,21.20
2004,08,13,10,41,21.30
2004,08,13,10,42,21.30
2004,08,13,10,43,21.30
2004,08,13,10,44,21.30
2004,08,13,10,45,21.20
2004,08,13,10,46,21.00
2004,08,13,10,47,20.90
2004,08,13,10,48,20.90
2004,08,13,10,49,21.00
2004,08,13,10,50,20.90
2004,08,13,10,51,20.60
2004,08,13,10,52,20.50
2004,08,13,10,53,20.40
2004,08,13,10,54,20.50
2004,08,13,10,55,20.60
2004,08,13,10,56,20.80
2004,08,13,10,57,21.00
2004,08,13,10,58,21.00
2004,08,13,10,59,21.10
2004,08,13,11,00,21.30
2004,08,13,11,01,21.40
2004,08,13,11,02,21.40
2004,08,13,11,03,21.40
2004,08,13,11,04,21.30
2004,08,13,11,05,21.30
2004,08,13,11,06,21.20
2004,08,13,11,07,21.30
2004,08,13,11,08,21.30
2004,08,13,11,09,21.30
2004,08,13,11,10,21.40
2004,08,13,11,11,21.50
2004,08,13,11,12,21.50
2004,08,13,11,13,21.50
2004,08,13,11,14,21.60
2004,08,13,11,15,21.70
2004,08,13,11,16,21.70
2004,08,13,11,17,21.70
2004,08,13,11,18,21.80
2004,08,13,11,19,21.80
2004,08,13,11,20,22.00
2004,08,13,11,21,22.00
2004,08,13,11,22,22.10
2004,08,13,11,23,22.10
2004,08,13,11,24,22.10
2004,08,13,11,25,22.10
2004,08,13,11,26,22.20
2004,08,13,11,27,22.20
2004,08,13,11,28,22.00
2004,08,13,11,29,21.80
2004,08,13,11,30,21.80
2004,08,13,11,31,21.80
2004,08,13,11,32,21.70
2004,08,13,11,33,21.70
2004,08,13,11,34,21.70
2004,08,13,11,35,21.70
2004,08,13,11,36,21.90
2004,08,13,11,37,22.00
2004,08,13,11,38,22.00
2004,08,13,11,39,22.10
2004,08,13,11,40,22.20
2004,08,13,11,41,22.00
2004,08,13,11,42,21.90
2004,08,13,11,43,21.80
2004,08,13,11,44,21.90
2004,08,13,11,45,21.80
2004,08,13,11,46,21.80
2004,08,13,11,47,21.80
2004,08,13,11,48,21.90
2004,08,13,11,49,22.00
2004,08,13,11,50,22.20
2004,08,13,11,51,22.30
2004,08,13,11,52,22.50
2004,08,13,11,53,22.40
2004,08,13,11,54,22.40
2004,08,13,11,55,22.40
2004,08,13,11,56,22.50
2004,08,13,11,57,22.50
2004,08,13,11,58,22.30
2004,08,13,11,59,22.20
2004,08,13,12,00,22.10
2004,08,13,12,01,22.10
2004,08,13,12,02,22.20
2004,08,13,12,03,22.30
2004,08,13,12,04,22.40
2004,08,13,12,05,22.50
2004,08,13,12,06,22.60
2004,08,13,12,07,22.70
2004,08,13,12,08,22.70
2004,08,13,12,09,22.70
2004,08,13,12,10,22.70
2004,08,13,12,11,22.80
2004,08,13,12,12,22.80
2004,08,13,12,13,22.80
2004,08,13,12,14,22.90
2004,08,13,12,15,22.90
2004,08,13,12,16,22.90
2004,08,13,12,17,23.00
2004,08,13,12,18,23.00
2004,08,13,12,19,23.00
2004,08,13,12,20,22.90
2004,08,13,12,21,22.70
2004,08,13,12,22,22.70
2004,08,13,12,23,22.80
2004,08,13,12,24,22.90
2004,08,13,12,25,23.00
2004,08,13,12,26,22.90
2004,08,13,12,27,22.90
2004,08,13,12,28,23.00
2004,08,13,12,29,23.10
2004,08,13,12,30,22.90
2004,08,13,12,31,22.70
2004,08,13,12,32,22.70
2004,08,13,12,33,22.80
2004,08,13,12,34,22.90
2004,08,13,12,35,22.80
2004,08,13,12,36,22.80
2004,08,13,12,37,22.70
2004,08,13,12,38,22.60
2004,08,13,12,39,22.60
2004,08,13,12,40,22.70
2004,08,13,12,41,22.60
2004,08,13,12,42,22.40
2004,08,13,12,43,22.30
2004,08,13,12,44,22.20
2004,08,13,12,45,22.30
2004,08,13,12,46,22.50
2004,08,13,12,47,22.60
2004,08,13,12,48,22.30
2004,08,13,12,49,22.00
2004,08,13,12,50,22.10
2004,08,13,12,51,22.20
2004,08,13,12,52,22.40
2004,08,13,12,53,22.50
2004,08,13,12,54,22.60
2004,08,13,12,55,22.70
2004,08,13,12,56,22.70
2004,08,13,12,57,22.60
2004,08,13,12,58,22.50
2004,08,13,12,59,22.40
2004,08,13,13,00,22.30
2004,08,13,13,01,22.30
2004,08,13,13,02,22.30
2004,08,13,13,03,22.20
2004,08,13,13,04,22.20
2004,08,13,13,05,22.20
2004,08,13,13,06,22.30
2004,08,13,13,07,22.20
2004,08,13,13,08,22.20
2004,08,13,13,09,22.10
2004,08,13,13,10,22.20
2004,08,13,13,11,22.20
2004,08,13,13,12,22.30
2004,08,13,13,13,22.20
2004,08,13,13,14,22.20
2004,08,13,13,15,22.30
2004,08,13,13,16,22.30
2004,08,13,13,17,22.30
2004,08,13,13,18,22.30
2004,08,13,13,19,22.40
2004,08,13,13,20,22.50
2004,08,13,13,21,22.60
2004,08,13,13,22,22.50
2004,08,13,13,23,22.50
2004,08,13,13,24,22.60
2004,08,13,13,25,22.70
2004,08,13,13,26,22.90
2004,08,13,13,27,22.90
2004,08,13,13,28,23.00
2004,08,13,13,29,23.20
2004,08,13,13,30,23.30
2004,08,13,13,31,23.40
2004,08,13,13,32,23.60
2004,08,13,13,33,23.70
2004,08,13,13,34,23.80
2004,08,13,13,35,23.80
2004,08,13,13,36,23.70
2004,08,13,13,37,23.50
2004,08,13,13,38,23.40
2004,08,13,13,39,23.40
2004,08,13,13,40,23.40
2004,08,13,13,41,23.50
2004,08,13,13,42,23.60
2004,08,13,13,43,23.60
2004,08,13,13,44,23.70
2004,08,13,13,45,23.80
2004,08,13,13,46,23.70
2004,08,13,13,47,23.60
2004,08,13,13,48,23.70
2004,08,13,13,49,23.70
2004,08,13,13,50,23.70
2004,08,13,13,51,23.70
2004,08,13,13,52,23.70
2004,08,13,13,53,23.60
2004,08,13,13,54,23.50
2004,08,13,13,55,23.50
2004,08,13,13,56,23.60
2004,08,13,13,57,23.70
2004,08,13,13,58,23.70
2004,08,13,13,59,23.80
2004,08,13,14,00,23.80
2004,08,13,14,01,23.80
2004,08,13,14,02,24.00
2004,08,13,14,03,24.10
2004,08,13,14,04,24.10
2004,08,13,14,05,24.00
2004,08,13,14,06,23.90
2004,08,13,14,07,23.90
2004,08,13,14,08,23.90
2004,08,13,14,09,24.00
2004,08,13,14,10,24.10
2004,08,13,14,11,24.10
2004,08,13,14,12,24.10
2004,08,13,14,13,24.20
2004,08,13,14,14,24.50
2004,08,13,14,15,24.50
2004,08,13,14,16,24.50
2004,08,13,14,17,24.50
2004,08,13,14,18,24.50
2004,08,13,14,19,24.40
2004,08,13,14,20,24.20
2004,08,13,14,21,24.10
2004,08,13,14,22,24.10
2004,08,13,14,23,24.10
2004,08,13,14,24,24.10
2004,08,13,14,25,24.10
2004,08,13,14,26,24.10
2004,08,13,14,27,24.00
2004,08,13,14,28,23.90
2004,08,13,14,29,24.00
2004,08,13,14,30,24.00
2004,08,13,14,31,23.80
2004,08,13,14,32,23.80
2004,08,13,14,33,23.70
2004,08,13,14,34,23.80
2004,08,13,14,35,23.80
2004,08,13,14,36,23.80
2004,08,13,14,37,23.90
2004,08,13,14,38,23.90
2004,08,13,14,39,24.00
2004,08,13,14,40,24.10
2004,08,13,14,41,24.10
2004,08,13,14,42,24.10
2004,08,13,14,43,24.10
2004,08,13,14,44,24.10
2004,08,13,14,45,24.10
2004,08,13,14,46,24.10
2004,08,13,14,47,24.10
2004,08,13,14,48,24.20
2004,08,13,14,49,24.20
2004,08,13,14,50,24.20
2004,08,13,14,51,24.20
2004,08,13,14,52,24.40
2004,08,13,14,53,24.40
2004,08,13,14,54,24.40
2004,08,13,14,55,24.50
2004,08,13,14,56,24.40
2004,08,13,14,57,24.50
2004,08,13,14,58,24.50
2004,08,13,14,59,24.40
2004,08,13,15,00,24.30
2004,08,13,15,01,24.30
2004,08,13,15,02,24.30
2004,08,13,15,03,24.20
2004,08,13,15,04,24.30
2004,08,13,15,05,24.30
2004,08,13,15,06,24.40
2004,08,13,15,07,24.50
2004,08,13,15,08,24.50
2004,08,13,15,09,24.60
2004,08,13,15,10,24.50
2004,08,13,15,11,24.50
2004,08,13,15,12,24.40
2004,08,13,15,13,24.40
2004,08,13,15,14,24.20
2004,08,13,15,15,24.10
2004,08,13,15,16,24.10
2004,08,13,15,17,24.10
2004,08,13,15,18,24.10
2004,08,13,15,19,24.20
2004,08,13,15,20,24.40
2004,08,13,15,21,24.60
2004,08,13,15,22,24.60
2004,08,13,15,23,24.60
2004,08,13,15,24,24.50
2004,08,13,15,25,24.40
2004,08,13,15,26,24.40
2004,08,13,15,27,24.40
2004,08,13,15,28,24.20
2004,08,13,15,29,24.30
2004,08,13,15,30,24.30
2004,08,13,15,31,24.10
2004,08,13,15,32,24.10
2004,08,13,15,33,24.10
2004,08,13,15,34,24.20
2004,08,13,15,35,24.20
2004,08,13,15,36,24.30
2004,08,13,15,37,24.40
2004,08,13,15,38,24.50
2004,08,13,15,39,24.50
2004,08,13,15,40,24.40
2004,08,13,15,41,24.30
2004,08,13,15,42,24.30
2004,08,13,15,43,24.20
2004,08,13,15,44,24.20
2004,08,13,15,45,24.30
2004,08,13,15,46,24.20
2004,08,13,15,47,24.20
2004,08,13,15,48,24.40
2004,08,13,15,49,24.50
2004,08,13,15,50,24.40
2004,08,13,15,51,24.30
2004,08,13,15,52,24.10
2004,08,13,15,53,24.10
2004,08,13,15,54,24.10
2004,08,13,15,55,24.00
2004,08,13,15,56,24.00
2004,08,13,15,57,24.10
2004,08,13,15,58,24.20
2004,08,13,15,59,24.20
2004,08,13,16,00,24.10
2004,08,13,16,01,24.10
2004,08,13,16,02,24.00
2004,08,13,16,03,23.80
2004,08,13,16,04,23.80
2004,08,13,16,05,23.80
2004,08,13,16,06,23.80
2004,08,13,16,07,23.80
2004,08,13,16,08,24.00
2004,08,13,16,09,24.10
2004,08,13,16,10,24.30
2004,08,13,16,11,24.40
2004,08,13,16,12,24.50
2004,08,13,16,13,24.80
2004,08,13,16,14,25.10
2004,08,13,16,15,25.40
2004,08,13,16,16,26.00
2004,08,13,16,17,26.40
2004,08,13,16,18,26.90
2004,08,13,16,19,27.20
2004,08,13,16,20,27.40
2004,08,13,16,21,27.60
2004,08,13,16,22,27.70
2004,08,13,16,23,28.00
2004,08,13,16,24,28.10
2004,08,13,16,25,28.20
2004,08,13,16,26,28.40
2004,08,13,16,27,28.60
2004,08,13,16,28,28.50
2004,08,13,16,29,28.60
2004,08,13,16,30,28.60
2004,08,13,16,31,28.60
2004,08,13,16,32,28.70
2004,08,13,16,33,28.50
2004,08,13,16,34,28.70
2004,08,13,16,35,28.70
2004,08,13,16,36,28.80
2004,08,13,16,37,28.80
2004,08,13,16,38,28.80
2004,08,13,16,39,28.80
2004,08,13,16,40,28.80
2004,08,13,16,41,28.70
2004,08,13,16,42,28.60
2004,08,13,16,43,28.80
2004,08,13,16,44,28.90
2004,08,13,16,45,28.90
2004,08,13,16,46,28.90
2004,08,13,16,47,28.90
2004,08,13,16,48,28.90
2004,08,13,16,49,28.90
2004,08,13,16,50,29.00
2004,08,13,16,51,28.90
2004,08,13,16,52,28.80
2004,08,13,16,53,28.80
2004,08,13,16,54,28.90
2004,08,13,16,55,29.00
2004,08,13,16,56,29.10
2004,08,13,16,57,29.10
2004,08,13,16,58,29.10
2004,08,13,16,59,29.20
2004,08,13,17,00,29.20
2004,08,13,17,01,29.10
2004,08,13,17,02,28.90
2004,08,13,17,03,28.80
2004,08,13,17,04,28.90
2004,08,13,17,05,28.80
2004,08,13,17,06,28.90
2004,08,13,17,07,29.00
2004,08,13,17,08,29.10
2004,08,13,17,09,29.00
2004,08,13,17,10,28.90
2004,08,13,17,11,29.00
2004,08,13,17,12,29.00
2004,08,13,17,13,29.10
2004,08,13,17,14,29.10
2004,08,13,17,15,29.10
2004,08,13,17,16,29.20
2004,08,13,17,17,29.20
2004,08,13,17,18,29.10
2004,08,13,17,19,29.20